Weather History for Sparta, IL

Change the Weather History Date:

Monday, January 21, 2013

  Actual Average (KBLV) Record (KBLV)
Temperature  
Mean Temperature 22 °F -  
Max Temperature 28 °F 40 °F 72 °F (1986)
Min Temperature 15 °F 22 °F -15 °F (1984)
Degree Days  
Heating Degree Days 42    
Moisture  
Dew Point -1 °F    
Average Humidity 43    
Maximum Humidity 86    
Minimum Humidity 5    
Precipitation  
Precipitation 0.00 in - - ()
Sea Level Pressure  
Sea Level Pressure 30.33 in    
Wind  
Wind Speed 9 mph (NW)    
Max Wind Speed 16 mph    
Max Gust Speed 25 mph    
Visibility 10 miles    
Events      
Averages and records for this station are not official NWS values.
T = Trace of Precipitation, MM = Missing Value Source: NWS Daily Summary

Daily Weather History Graph

Daily Weather History Graph

Search for Another Location

Airport:

Trip Planner

Search our weather history database for the weather conditions in past years. The results will help you decide how hot, cold, wet, or windy it might be!

Date:

Astronomy

Jan. 21, 2013 Rise Set
Actual Time 7:11 AM CST 5:09 PM CST
Civil Twilight 6:42 AM CST 5:38 PM CST
Nautical Twilight 6:10 AM CST 6:10 PM CST
Astronomical Twilight 5:39 AM CST 6:41 PM CST
Moon 12:49 PM CST (1/21) 2:39 AM CST (1/21)
Length of Visible Light 10h 55m
Length of Day
9h 58m
Waxing Gibbous, 75% of the Moon is Illuminated
Jan 21
Waxing Gibbous
Jan 26
Full
Feb 3
Last Quarter
Feb 10
New
Feb 17
First Quarter

Hourly Weather History & Observations

Time (CST) Temp. Windchill Dew Point Humidity Pressure Visibility Wind Dir Wind Speed Gust Speed Precip Events Conditions
12:15 AM 26.6 °F 20.0 °F 17.6 °F 69% 30.27 in 10.0 mi NW 5.8 mph - N/A   Overcast
12:35 AM 26.6 °F 18.2 °F 15.8 °F 64% 30.27 in 10.0 mi NNW 8.1 mph - N/A   Overcast
12:55 AM 26.6 °F 18.2 °F 15.8 °F 64% 30.28 in 10.0 mi NW 8.1 mph - N/A   Overcast
1:15 AM 26.6 °F 17.5 °F 12.2 °F 55% 30.28 in 10.0 mi NW 9.2 mph - N/A   Mostly Cloudy
1:35 AM 26.6 °F 17.5 °F 14.0 °F 59% 30.28 in 10.0 mi NW 9.2 mph - N/A   Overcast
1:55 AM 26.6 °F 17.5 °F 14.0 °F 59% 30.29 in 10.0 mi NW 9.2 mph 16.1 mph N/A   Mostly Cloudy
2:15 AM 24.8 °F 15.3 °F 14.0 °F 64% 30.29 in 10.0 mi NNW 9.2 mph - N/A   Scattered Clouds
2:35 AM 24.8 °F 16.1 °F 15.8 °F 69% 30.29 in 10.0 mi NNW 8.1 mph - N/A   Clear
2:55 AM 24.8 °F 15.3 °F 15.8 °F 69% 30.30 in 10.0 mi NW 9.2 mph - N/A   Clear
3:15 AM 24.8 °F 14.6 °F 15.8 °F 69% 30.30 in 10.0 mi NW 10.4 mph 16.1 mph N/A   Clear
3:35 AM 23.0 °F 13.9 °F 15.8 °F 74% 30.30 in 10.0 mi NW 8.1 mph - N/A   Clear
3:55 AM 23.0 °F 13.1 °F 15.8 °F 74% 30.30 in 10.0 mi NW 9.2 mph 16.1 mph N/A   Clear
4:15 AM 21.2 °F 14.9 °F 15.8 °F 80% 30.30 in 10.0 mi WNW 4.6 mph - N/A   Clear
4:35 AM 21.2 °F 13.6 °F 15.8 °F 80% 30.31 in 10.0 mi NW 5.8 mph - N/A   Clear
4:55 AM 21.2 °F 11.7 °F 17.6 °F 86% 30.32 in 10.0 mi WNW 8.1 mph - N/A   Clear
5:15 AM 21.2 °F 11.7 °F 17.6 °F 86% 30.33 in 10.0 mi NW 8.1 mph - N/A   Scattered Clouds
5:35 AM 21.2 °F 9.5 °F 15.8 °F 80% 30.33 in 10.0 mi NW 11.5 mph 18.4 mph N/A   Scattered Clouds
5:55 AM 21.2 °F 12.6 °F 15.8 °F 80% 30.34 in 10.0 mi NW 6.9 mph - N/A   Clear
6:15 AM 21.2 °F 14.9 °F 15.8 °F 80% 30.33 in 10.0 mi WNW 4.6 mph - N/A   Clear
6:35 AM 19.4 °F 12.8 °F 15.8 °F 86% 30.33 in 10.0 mi WNW 4.6 mph - N/A   Clear
6:55 AM 21.2 °F 13.6 °F 15.8 °F 80% 30.34 in 10.0 mi WNW 5.8 mph - N/A   Clear
7:15 AM 21.2 °F 11.7 °F 15.8 °F 80% 30.34 in 10.0 mi WNW 8.1 mph - N/A   Clear
7:35 AM 21.2 °F 10.9 °F 15.8 °F 80% 30.33 in 10.0 mi WNW 9.2 mph - N/A   Scattered Clouds
7:55 AM 21.2 °F 10.1 °F 10.4 °F 63% 30.33 in 10.0 mi WNW 10.4 mph 18.4 mph N/A   Clear
8:15 AM 21.2 °F 9.5 °F 10.4 °F 63% 30.34 in 10.0 mi NW 11.5 mph - N/A   Clear
8:35 AM 21.2 °F 11.7 °F 8.6 °F 58% 30.34 in 10.0 mi WNW 8.1 mph 17.3 mph N/A   Clear
8:55 AM 23.0 °F 13.1 °F 8.6 °F 54% 30.34 in 10.0 mi NW 9.2 mph 16.1 mph N/A   Clear
9:15 AM 23.0 °F 14.7 °F 10.4 °F 59% 30.35 in 10.0 mi WNW 6.9 mph - N/A   Clear
9:35 AM 23.0 °F 11.1 °F 8.6 °F 54% 30.34 in 10.0 mi WNW 12.7 mph 19.6 mph N/A   Clear
9:55 AM 24.8 °F 14.0 °F 8.6 °F 50% 30.34 in 10.0 mi WNW 11.5 mph - N/A   Clear
10:15 AM 24.8 °F 14.0 °F 8.6 °F 50% 30.34 in 10.0 mi WNW 11.5 mph - N/A   Clear
10:35 AM 24.8 °F 12.9 °F 6.8 °F 46% 30.34 in 10.0 mi NW 13.8 mph 18.4 mph N/A   Clear
10:55 AM 26.6 °F 14.7 °F 3.2 °F 37% 30.34 in 10.0 mi WNW 15.0 mph 23.0 mph N/A   Scattered Clouds
11:15 AM 26.6 °F 14.3 °F 1.4 °F 34% 30.33 in 10.0 mi West 16.1 mph 20.7 mph N/A   Clear
11:35 AM 26.6 °F 16.8 °F 1.4 °F 34% 30.32 in 10.0 mi WNW 10.4 mph 19.6 mph N/A   Clear
11:55 AM 26.6 °F 15.2 °F -0.4 °F 31% 30.32 in 10.0 mi NW 13.8 mph 23.0 mph N/A   Clear
12:15 PM 28.4 °F 17.0 °F -4.0 °F 25% 30.31 in 10.0 mi WNW 15.0 mph 25.3 mph N/A   Clear
12:35 PM 28.4 °F 17.5 °F -5.8 °F 23% 30.31 in 10.0 mi NW 13.8 mph 19.6 mph N/A   Clear
12:55 PM 26.6 °F 15.7 °F -9.4 °F 21% 30.31 in 10.0 mi WNW 12.7 mph - N/A   Clear
1:15 PM 26.6 °F 15.2 °F -7.6 °F 22% 30.31 in 10.0 mi NW 13.8 mph 24.2 mph N/A   Clear
1:35 PM 28.4 °F 18.0 °F -5.8 °F 23% 30.31 in 10.0 mi NW 12.7 mph 23.0 mph N/A   Clear
1:55 PM 28.4 °F 18.0 °F -9.4 °F 19% 30.31 in 10.0 mi NW 12.7 mph 23.0 mph N/A   Clear
2:15 PM 28.4 °F 17.5 °F -9.4 °F 19% 30.31 in 10.0 mi WNW 13.8 mph 24.2 mph N/A   Clear
2:35 PM 28.4 °F 18.5 °F -7.6 °F 21% 30.30 in 10.0 mi NW 11.5 mph 20.7 mph N/A   Clear
2:55 PM 28.4 °F 19.1 °F -9.4 °F 19% 30.30 in 10.0 mi NW 10.4 mph - N/A   Clear
3:15 PM 26.6 °F 16.2 °F -14.8 °F 16% 30.31 in 10.0 mi NNW 11.5 mph 18.4 mph N/A   Clear
3:35 PM 26.6 °F 17.5 °F -23.8 °F 10% 30.32 in 10.0 mi NNW 9.2 mph - N/A   Mostly Cloudy
3:55 PM 26.6 °F 14.7 °F -38.2 °F 5% 30.32 in 10.0 mi NNW 15.0 mph 19.6 mph N/A   Overcast
4:15 PM 24.8 °F 13.4 °F -40.0 °F 5% 30.33 in 10.0 mi NNW 12.7 mph 20.7 mph N/A   Mostly Cloudy
4:35 PM 24.8 °F 12.9 °F -38.2 °F 5% 30.33 in 10.0 mi NW 13.8 mph 18.4 mph N/A   Mostly Cloudy
4:55 PM 23.0 °F 11.7 °F -32.8 °F 7% 30.34 in 10.0 mi NW 11.5 mph 18.4 mph N/A   Overcast
5:15 PM 23.0 °F 13.1 °F -23.8 °F 12% 30.34 in 10.0 mi NNW 9.2 mph 17.3 mph N/A   Overcast
5:35 PM 21.2 °F 10.1 °F -18.4 °F 17% 30.35 in 10.0 mi NW 10.4 mph - N/A   Overcast
5:55 PM 21.2 °F 11.7 °F -16.6 °F 18% 30.34 in 10.0 mi NW 8.1 mph - N/A   Overcast
6:15 PM 21.2 °F 11.7 °F -16.6 °F 18% 30.35 in 10.0 mi NW 8.1 mph - N/A   Overcast
6:35 PM 21.2 °F 10.1 °F -18.4 °F 17% 30.35 in 10.0 mi NW 10.4 mph - N/A   Overcast
6:55 PM 21.2 °F 12.6 °F -11.2 °F 24% 30.35 in 10.0 mi NW 6.9 mph - N/A   Overcast
7:15 PM 21.2 °F 10.1 °F -14.8 °F 20% 30.35 in 10.0 mi NW 10.4 mph - N/A   Overcast
7:55 PM 19.4 °F 9.5 °F -7.6 °F 30% 30.36 in 10.0 mi NW 8.1 mph - N/A   Overcast
8:15 PM 19.4 °F 8.6 °F -7.6 °F 30% 30.35 in 10.0 mi NW 9.2 mph - N/A   Overcast
8:35 PM 19.4 °F 8.6 °F -9.4 °F 28% 30.36 in 10.0 mi NW 9.2 mph - N/A   Overcast
8:55 PM 19.4 °F 7.9 °F -13.0 °F 23% 30.37 in 10.0 mi NNW 10.4 mph - N/A   Scattered Clouds
9:15 PM 19.4 °F 10.4 °F -11.2 °F 25% 30.37 in 10.0 mi NNW 6.9 mph - N/A   Clear
9:35 PM 19.4 °F 8.6 °F -7.6 °F 30% 30.37 in 10.0 mi NNW 9.2 mph - N/A   Clear
9:55 PM 19.4 °F 11.5 °F -9.4 °F 28% 30.38 in 10.0 mi NNW 5.8 mph - N/A   Clear
10:15 PM 17.6 °F 9.3 °F -9.4 °F 30% 30.38 in 10.0 mi North 5.8 mph - N/A   Clear
10:35 PM 17.6 °F 9.3 °F -7.6 °F 32% 30.39 in 10.0 mi NNW 5.8 mph - N/A   Clear
10:55 PM 17.6 °F 6.4 °F -7.6 °F 32% 30.39 in 10.0 mi NNW 9.2 mph - N/A   Clear
11:15 PM 17.6 °F 7.3 °F -5.8 °F 35% 30.39 in 10.0 mi NNW 8.1 mph - N/A   Scattered Clouds
11:35 PM 17.6 °F 8.2 °F -7.6 °F 32% 30.39 in 10.0 mi NNW 6.9 mph - N/A   Scattered Clouds
11:55 PM 15.8 °F 8.6 °F -5.8 °F 38% 30.39 in 10.0 mi NNW 4.6 mph - N/A   Clear